Year,Month,Day,Hour,Minute,Value (Times are PST for temperature in C)
2011,09,25,00,00,16.80
2011,09,25,00,01,16.80
2011,09,25,00,02,16.80
2011,09,25,00,03,16.80
2011,09,25,00,04,16.80
2011,09,25,00,05,16.80
2011,09,25,00,06,16.80
2011,09,25,00,07,16.90
2011,09,25,00,08,16.90
2011,09,25,00,09,16.90
2011,09,25,00,10,16.90
2011,09,25,00,11,16.90
2011,09,25,00,12,16.90
2011,09,25,00,13,16.90
2011,09,25,00,14,16.90
2011,09,25,00,15,16.90
2011,09,25,00,16,16.90
2011,09,25,00,17,16.90
2011,09,25,00,18,16.80
2011,09,25,00,19,16.80
2011,09,25,00,20,16.80
2011,09,25,00,21,16.80
2011,09,25,00,22,16.80
2011,09,25,00,23,16.70
2011,09,25,00,24,16.70
2011,09,25,00,25,16.70
2011,09,25,00,26,16.60
2011,09,25,00,27,16.60
2011,09,25,00,28,16.50
2011,09,25,00,29,16.50
2011,09,25,00,30,16.40
2011,09,25,00,31,16.40
2011,09,25,00,32,16.30
2011,09,25,00,33,16.30
2011,09,25,00,34,16.20
2011,09,25,00,35,16.10
2011,09,25,00,36,16.10
2011,09,25,00,37,16.00
2011,09,25,00,38,15.90
2011,09,25,00,39,15.90
2011,09,25,00,40,15.80
2011,09,25,00,41,15.80
2011,09,25,00,42,15.70
2011,09,25,00,43,15.70
2011,09,25,00,44,15.70
2011,09,25,00,45,15.70
2011,09,25,00,46,15.70
2011,09,25,00,47,15.70
2011,09,25,00,48,15.70
2011,09,25,00,49,15.70
2011,09,25,00,50,15.70
2011,09,25,00,51,15.70
2011,09,25,00,52,15.70
2011,09,25,00,53,15.70
2011,09,25,00,54,15.70
2011,09,25,00,55,15.70
2011,09,25,00,56,15.70
2011,09,25,00,57,15.70
2011,09,25,00,58,15.70
2011,09,25,00,59,15.70
2011,09,25,01,00,15.80
2011,09,25,01,01,15.80
2011,09,25,01,02,15.80
2011,09,25,01,03,15.80
2011,09,25,01,04,15.80
2011,09,25,01,05,15.80
2011,09,25,01,06,15.80
2011,09,25,01,07,15.80
2011,09,25,01,08,15.80
2011,09,25,01,09,15.70
2011,09,25,01,10,15.70
2011,09,25,01,11,15.70
2011,09,25,01,12,15.60
2011,09,25,01,13,15.60
2011,09,25,01,14,15.50
2011,09,25,01,15,15.50
2011,09,25,01,16,15.50
2011,09,25,01,17,15.40
2011,09,25,01,18,15.40
2011,09,25,01,19,15.40
2011,09,25,01,20,15.40
2011,09,25,01,21,15.30
2011,09,25,01,22,15.30
2011,09,25,01,23,15.30
2011,09,25,01,24,15.30
2011,09,25,01,25,15.30
2011,09,25,01,26,15.30
2011,09,25,01,27,15.30
2011,09,25,01,28,15.30
2011,09,25,01,29,15.30
2011,09,25,01,30,15.30
2011,09,25,01,31,15.30
2011,09,25,01,32,15.20
2011,09,25,01,33,15.20
2011,09,25,01,34,15.20
2011,09,25,01,35,15.20
2011,09,25,01,36,15.10
2011,09,25,01,37,15.10
2011,09,25,01,38,15.10
2011,09,25,01,39,15.20
2011,09,25,01,40,15.20
2011,09,25,01,41,15.20
2011,09,25,01,42,15.20
2011,09,25,01,43,15.20
2011,09,25,01,44,15.30
2011,09,25,01,45,15.30
2011,09,25,01,46,15.30
2011,09,25,01,47,15.30
2011,09,25,01,48,15.30
2011,09,25,01,49,15.30
2011,09,25,01,50,15.30
2011,09,25,01,51,15.40
2011,09,25,01,52,15.40
2011,09,25,01,53,15.40
2011,09,25,01,54,15.40
2011,09,25,01,55,15.40
2011,09,25,01,56,15.40
2011,09,25,01,57,15.40
2011,09,25,01,58,15.40
2011,09,25,01,59,15.50
2011,09,25,02,00,15.50
2011,09,25,02,01,15.50
2011,09,25,02,02,15.50
2011,09,25,02,03,15.60
2011,09,25,02,04,15.60
2011,09,25,02,05,15.60
2011,09,25,02,06,15.70
2011,09,25,02,07,15.70
2011,09,25,02,08,15.70
2011,09,25,02,09,15.70
2011,09,25,02,10,15.80
2011,09,25,02,11,15.80
2011,09,25,02,12,15.80
2011,09,25,02,13,15.90
2011,09,25,02,14,16.00
2011,09,25,02,15,16.00
2011,09,25,02,16,16.10
2011,09,25,02,17,16.20
2011,09,25,02,18,16.30
2011,09,25,02,19,16.30
2011,09,25,02,20,16.40
2011,09,25,02,21,16.50
2011,09,25,02,22,16.50
2011,09,25,02,23,16.70
2011,09,25,02,24,16.70
2011,09,25,02,25,16.80
2011,09,25,02,26,16.80
2011,09,25,02,27,16.80
2011,09,25,02,28,16.80
2011,09,25,02,29,16.80
2011,09,25,02,30,16.80
2011,09,25,02,31,16.80
2011,09,25,02,32,16.80
2011,09,25,02,33,16.70
2011,09,25,02,34,16.60
2011,09,25,02,35,16.60
2011,09,25,02,36,16.50
2011,09,25,02,37,16.40
2011,09,25,02,38,16.40
2011,09,25,02,39,16.40
2011,09,25,02,40,16.30
2011,09,25,02,41,16.30
2011,09,25,02,42,16.40
2011,09,25,02,43,16.40
2011,09,25,02,44,16.50
2011,09,25,02,45,16.50
2011,09,25,02,46,16.60
2011,09,25,02,47,16.60
2011,09,25,02,48,16.70
2011,09,25,02,49,16.70
2011,09,25,02,50,16.70
2011,09,25,02,51,16.70
2011,09,25,02,52,16.60
2011,09,25,02,53,16.60
2011,09,25,02,54,16.60
2011,09,25,02,55,16.50
2011,09,25,02,56,16.50
2011,09,25,02,57,16.50
2011,09,25,02,58,16.50
2011,09,25,02,59,16.50
2011,09,25,03,00,16.50
2011,09,25,03,01,16.50
2011,09,25,03,02,16.50
2011,09,25,03,03,16.50
2011,09,25,03,04,16.50
2011,09,25,03,05,16.50
2011,09,25,03,06,16.60
2011,09,25,03,07,16.60
2011,09,25,03,08,16.70
2011,09,25,03,09,16.70
2011,09,25,03,10,16.70
2011,09,25,03,11,16.80
2011,09,25,03,12,16.80
2011,09,25,03,13,16.80
2011,09,25,03,14,16.80
2011,09,25,03,15,16.80
2011,09,25,03,16,16.80
2011,09,25,03,17,16.80
2011,09,25,03,18,16.80
2011,09,25,03,19,16.80
2011,09,25,03,20,16.80
2011,09,25,03,21,16.80
2011,09,25,03,22,16.80
2011,09,25,03,23,16.80
2011,09,25,03,24,16.80
2011,09,25,03,25,16.80
2011,09,25,03,26,16.70
2011,09,25,03,27,16.70
2011,09,25,03,28,16.70
2011,09,25,03,29,16.70
2011,09,25,03,30,16.70
2011,09,25,03,31,16.70
2011,09,25,03,32,16.70
2011,09,25,03,33,16.70
2011,09,25,03,34,16.70
2011,09,25,03,35,16.70
2011,09,25,03,36,16.70
2011,09,25,03,37,16.70
2011,09,25,03,38,16.70
2011,09,25,03,39,16.70
2011,09,25,03,40,16.80
2011,09,25,03,41,16.80
2011,09,25,03,42,16.80
2011,09,25,03,43,16.80
2011,09,25,03,44,16.80
2011,09,25,03,45,16.80
2011,09,25,03,46,16.80
2011,09,25,03,47,16.80
2011,09,25,03,48,16.80
2011,09,25,03,49,16.80
2011,09,25,03,50,16.80
2011,09,25,03,51,16.80
2011,09,25,03,52,16.70
2011,09,25,03,53,16.70
2011,09,25,03,54,16.70
2011,09,25,03,55,16.60
2011,09,25,03,56,16.60
2011,09,25,03,57,16.60
2011,09,25,03,58,16.60
2011,09,25,03,59,16.60
2011,09,25,04,00,16.60
2011,09,25,04,01,16.60
2011,09,25,04,02,16.60
2011,09,25,04,03,16.60
2011,09,25,04,04,16.50
2011,09,25,04,05,16.50
2011,09,25,04,06,16.50
2011,09,25,04,07,16.40
2011,09,25,04,08,16.40
2011,09,25,04,09,16.40
2011,09,25,04,10,16.30
2011,09,25,04,11,16.30
2011,09,25,04,12,16.20
2011,09,25,04,13,16.20
2011,09,25,04,14,16.10
2011,09,25,04,15,16.10
2011,09,25,04,16,16.10
2011,09,25,04,17,16.10
2011,09,25,04,18,16.10
2011,09,25,04,19,16.10
2011,09,25,04,20,16.10
2011,09,25,04,21,16.00
2011,09,25,04,22,16.00
2011,09,25,04,23,16.00
2011,09,25,04,24,16.00
2011,09,25,04,25,16.00
2011,09,25,04,26,16.00
2011,09,25,04,27,16.00
2011,09,25,04,28,15.90
2011,09,25,04,29,15.90
2011,09,25,04,30,15.90
2011,09,25,04,31,15.90
2011,09,25,04,32,15.90
2011,09,25,04,33,15.90
2011,09,25,04,34,15.80
2011,09,25,04,35,15.80
2011,09,25,04,36,15.80
2011,09,25,04,37,15.80
2011,09,25,04,38,15.80
2011,09,25,04,39,15.80
2011,09,25,04,40,15.80
2011,09,25,04,41,15.80
2011,09,25,04,42,15.80
2011,09,25,04,43,15.80
2011,09,25,04,44,15.80
2011,09,25,04,45,15.80
2011,09,25,04,46,15.80
2011,09,25,04,47,15.80
2011,09,25,04,48,15.80
2011,09,25,04,49,15.80
2011,09,25,04,50,15.80
2011,09,25,04,51,15.80
2011,09,25,04,52,15.90
2011,09,25,04,53,15.90
2011,09,25,04,54,15.90
2011,09,25,04,55,15.90
2011,09,25,04,56,15.80
2011,09,25,04,57,15.90
2011,09,25,04,58,15.90
2011,09,25,04,59,15.90
2011,09,25,05,00,15.90
2011,09,25,05,01,15.90
2011,09,25,05,02,15.90
2011,09,25,05,03,15.90
2011,09,25,05,04,15.80
2011,09,25,05,05,15.80
2011,09,25,05,06,15.80
2011,09,25,05,07,15.80
2011,09,25,05,08,15.80
2011,09,25,05,09,15.80
2011,09,25,05,10,15.80
2011,09,25,05,11,15.80
2011,09,25,05,12,15.80
2011,09,25,05,13,15.80
2011,09,25,05,14,15.80
2011,09,25,05,15,15.80
2011,09,25,05,16,15.80
2011,09,25,05,17,15.70
2011,09,25,05,18,15.70
2011,09,25,05,19,15.70
2011,09,25,05,20,15.70
2011,09,25,05,21,15.70
2011,09,25,05,22,15.70
2011,09,25,05,23,15.60
2011,09,25,05,24,15.60
2011,09,25,05,25,15.60
2011,09,25,05,26,15.60
2011,09,25,05,27,15.60
2011,09,25,05,28,15.60
2011,09,25,05,29,15.60
2011,09,25,05,30,15.50
2011,09,25,05,31,15.50
2011,09,25,05,32,15.50
2011,09,25,05,33,15.40
2011,09,25,05,34,15.40
2011,09,25,05,35,15.40
2011,09,25,05,36,15.40
2011,09,25,05,37,15.40
2011,09,25,05,38,15.30
2011,09,25,05,39,15.30
2011,09,25,05,40,15.30
2011,09,25,05,41,15.30
2011,09,25,05,42,15.20
2011,09,25,05,43,15.20
2011,09,25,05,44,15.20
2011,09,25,05,45,15.20
2011,09,25,05,46,15.20
2011,09,25,05,47,15.20
2011,09,25,05,48,15.20
2011,09,25,05,49,15.20
2011,09,25,05,50,15.20
2011,09,25,05,51,15.20
2011,09,25,05,52,15.20
2011,09,25,05,53,15.30
2011,09,25,05,54,15.30
2011,09,25,05,55,15.30
2011,09,25,05,56,15.30
2011,09,25,05,57,15.30
2011,09,25,05,58,15.30
2011,09,25,05,59,15.30
2011,09,25,06,00,15.30
2011,09,25,06,01,15.30
2011,09,25,06,02,15.40
2011,09,25,06,03,15.40
2011,09,25,06,04,15.40
2011,09,25,06,05,15.40
2011,09,25,06,06,15.40
2011,09,25,06,07,15.40
2011,09,25,06,08,15.40
2011,09,25,06,09,15.50
2011,09,25,06,10,15.50
2011,09,25,06,11,15.50
2011,09,25,06,12,15.60
2011,09,25,06,13,15.70
2011,09,25,06,14,15.70
2011,09,25,06,15,15.80
2011,09,25,06,16,15.80
2011,09,25,06,17,15.80
2011,09,25,06,18,15.90
2011,09,25,06,19,15.90
2011,09,25,06,20,15.90
2011,09,25,06,21,16.00
2011,09,25,06,22,16.00
2011,09,25,06,23,16.00
2011,09,25,06,24,16.00
2011,09,25,06,25,16.00
2011,09,25,06,26,16.10
2011,09,25,06,27,16.10
2011,09,25,06,28,16.10
2011,09,25,06,29,16.10
2011,09,25,06,30,16.10
2011,09,25,06,31,16.10
2011,09,25,06,32,16.10
2011,09,25,06,33,16.00
2011,09,25,06,34,16.00
2011,09,25,06,35,16.00
2011,09,25,06,36,16.00
2011,09,25,06,37,15.90
2011,09,25,06,38,15.90
2011,09,25,06,39,15.90
2011,09,25,06,40,15.90
2011,09,25,06,41,15.80
2011,09,25,06,42,15.80
2011,09,25,06,43,15.80
2011,09,25,06,44,15.80
2011,09,25,06,45,15.70
2011,09,25,06,46,15.70
2011,09,25,06,47,15.70
2011,09,25,06,48,15.70
2011,09,25,06,49,15.60
2011,09,25,06,50,15.60
2011,09,25,06,51,15.60
2011,09,25,06,52,15.60
2011,09,25,06,53,15.50
2011,09,25,06,54,15.50
2011,09,25,06,55,15.50
2011,09,25,06,56,15.50
2011,09,25,06,57,15.40
2011,09,25,06,58,15.40
2011,09,25,06,59,15.40
2011,09,25,07,00,15.40
2011,09,25,07,01,15.40
2011,09,25,07,02,15.30
2011,09,25,07,03,15.30
2011,09,25,07,04,15.30
2011,09,25,07,05,15.30
2011,09,25,07,06,15.20
2011,09,25,07,07,15.20
2011,09,25,07,08,15.20
2011,09,25,07,09,15.20
2011,09,25,07,10,15.10
2011,09,25,07,11,15.10
2011,09,25,07,12,15.10
2011,09,25,07,13,15.10
2011,09,25,07,14,15.10
2011,09,25,07,15,15.10
2011,09,25,07,16,15.10
2011,09,25,07,17,15.10
2011,09,25,07,18,15.00
2011,09,25,07,19,15.00
2011,09,25,07,20,14.90
2011,09,25,07,21,14.90
2011,09,25,07,22,14.90
2011,09,25,07,23,14.80
2011,09,25,07,24,14.80
2011,09,25,07,25,14.80
2011,09,25,07,26,14.70
2011,09,25,07,27,14.70
2011,09,25,07,28,14.70
2011,09,25,07,29,14.60
2011,09,25,07,30,14.60
2011,09,25,07,31,14.50
2011,09,25,07,32,14.50
2011,09,25,07,33,14.40
2011,09,25,07,34,14.40
2011,09,25,07,35,14.40
2011,09,25,07,36,14.40
2011,09,25,07,37,14.40
2011,09,25,07,38,14.40
2011,09,25,07,39,14.40
2011,09,25,07,40,14.50
2011,09,25,07,41,14.50
2011,09,25,07,42,14.50
2011,09,25,07,43,14.50
2011,09,25,07,44,14.60
2011,09,25,07,45,14.60
2011,09,25,07,46,14.70
2011,09,25,07,47,14.70
2011,09,25,07,48,14.70
2011,09,25,07,49,14.70
2011,09,25,07,50,14.80
2011,09,25,07,51,14.80
2011,09,25,07,52,14.90
2011,09,25,07,53,15.00
2011,09,25,07,54,15.00
2011,09,25,07,55,15.10
2011,09,25,07,56,15.10
2011,09,25,07,57,15.20
2011,09,25,07,58,15.20
2011,09,25,07,59,15.20
2011,09,25,08,00,15.20
2011,09,25,08,01,15.20
2011,09,25,08,02,15.20
2011,09,25,08,03,15.20
2011,09,25,08,04,15.10
2011,09,25,08,05,15.10
2011,09,25,08,06,15.10
2011,09,25,08,07,15.00
2011,09,25,08,08,14.90
2011,09,25,08,09,14.90
2011,09,25,08,10,14.80
2011,09,25,08,11,14.80
2011,09,25,08,12,14.70
2011,09,25,08,13,14.70
2011,09,25,08,14,14.60
2011,09,25,08,15,14.60
2011,09,25,08,16,14.50
2011,09,25,08,17,14.50
2011,09,25,08,18,14.40
2011,09,25,08,19,14.30
2011,09,25,08,20,14.30
2011,09,25,08,21,14.30
2011,09,25,08,22,14.20
2011,09,25,08,23,14.20
2011,09,25,08,24,14.20
2011,09,25,08,25,14.20
2011,09,25,08,26,14.20
2011,09,25,08,27,14.10
2011,09,25,08,28,14.10
2011,09,25,08,29,14.10
2011,09,25,08,30,14.10
2011,09,25,08,31,14.10
2011,09,25,08,32,14.00
2011,09,25,08,33,14.00
2011,09,25,08,34,14.00
2011,09,25,08,35,14.00
2011,09,25,08,36,14.00
2011,09,25,08,37,14.00
2011,09,25,08,38,14.00
2011,09,25,08,39,14.00
2011,09,25,08,40,14.00
2011,09,25,08,41,14.00
2011,09,25,08,42,14.00
2011,09,25,08,43,14.00
2011,09,25,08,44,14.00
2011,09,25,08,45,14.00
2011,09,25,08,46,14.00
2011,09,25,08,47,14.00
2011,09,25,08,48,14.00
2011,09,25,08,49,14.00
2011,09,25,08,50,13.90
2011,09,25,08,51,13.90
2011,09,25,08,52,13.90
2011,09,25,08,53,13.90
2011,09,25,08,54,13.90
2011,09,25,08,55,13.90
2011,09,25,08,56,13.90
2011,09,25,08,57,13.90
2011,09,25,08,58,13.90
2011,09,25,08,59,13.90
2011,09,25,09,00,13.80
2011,09,25,09,01,13.80
2011,09,25,09,02,13.80
2011,09,25,09,03,13.80
2011,09,25,09,04,13.70
2011,09,25,09,05,13.70
2011,09,25,09,06,13.70
2011,09,25,09,07,13.60
2011,09,25,09,08,13.60
2011,09,25,09,09,13.60
2011,09,25,09,10,13.60
2011,09,25,09,11,13.60
2011,09,25,09,12,13.60
2011,09,25,09,13,13.50
2011,09,25,09,14,13.50
2011,09,25,09,15,13.50
2011,09,25,09,16,13.50
2011,09,25,09,17,13.50
2011,09,25,09,18,13.50
2011,09,25,09,19,13.50
2011,09,25,09,20,13.50
2011,09,25,09,21,13.60
2011,09,25,09,22,13.60
2011,09,25,09,23,13.60
2011,09,25,09,24,13.60
2011,09,25,09,25,13.60
2011,09,25,09,26,13.70
2011,09,25,09,27,13.70
2011,09,25,09,28,13.70
2011,09,25,09,29,13.70
2011,09,25,09,30,13.70
2011,09,25,09,31,13.70
2011,09,25,09,32,13.70
2011,09,25,09,33,13.70
2011,09,25,09,34,13.70
2011,09,25,09,35,13.70
2011,09,25,09,36,13.70
2011,09,25,09,37,13.70
2011,09,25,09,38,13.70
2011,09,25,09,39,13.70
2011,09,25,09,40,13.70
2011,09,25,09,41,13.70
2011,09,25,09,42,13.70
2011,09,25,09,43,13.70
2011,09,25,09,44,13.80
2011,09,25,09,45,13.80
2011,09,25,09,46,13.80
2011,09,25,09,47,13.80
2011,09,25,09,48,13.80
2011,09,25,09,49,13.80
2011,09,25,09,50,13.80
2011,09,25,09,51,13.80
2011,09,25,09,52,13.80
2011,09,25,09,53,13.80
2011,09,25,09,54,13.80
2011,09,25,09,55,13.80
2011,09,25,09,56,13.80
2011,09,25,09,57,13.80
2011,09,25,09,58,13.80
2011,09,25,09,59,13.70
2011,09,25,10,00,13.70
2011,09,25,10,01,13.70
2011,09,25,10,02,13.70
2011,09,25,10,03,13.70
2011,09,25,10,04,13.60
2011,09,25,10,05,13.60
2011,09,25,10,06,13.50
2011,09,25,10,07,13.50
2011,09,25,10,08,13.40
2011,09,25,10,09,13.40
2011,09,25,10,10,13.30
2011,09,25,10,11,13.30
2011,09,25,10,12,13.30
2011,09,25,10,13,13.20
2011,09,25,10,14,13.20
2011,09,25,10,15,13.20
2011,09,25,10,16,13.10
2011,09,25,10,17,13.10
2011,09,25,10,18,13.00
2011,09,25,10,19,13.00
2011,09,25,10,20,13.00
2011,09,25,10,21,13.00
2011,09,25,10,22,12.90
2011,09,25,10,23,12.90
2011,09,25,10,24,12.90
2011,09,25,10,25,12.90
2011,09,25,10,26,12.90
2011,09,25,10,27,12.90
2011,09,25,10,28,12.80
2011,09,25,10,29,12.80
2011,09,25,10,30,12.80
2011,09,25,10,31,12.80
2011,09,25,10,32,12.80
2011,09,25,10,33,12.80
2011,09,25,10,34,12.80
2011,09,25,10,35,12.80
2011,09,25,10,36,12.80
2011,09,25,10,37,12.80
2011,09,25,10,38,12.80
2011,09,25,10,39,12.80
2011,09,25,10,40,12.80
2011,09,25,10,41,12.80
2011,09,25,10,42,12.80
2011,09,25,10,43,12.70
2011,09,25,10,44,12.70
2011,09,25,10,45,12.70
2011,09,25,10,46,12.70
2011,09,25,10,47,12.70
2011,09,25,10,48,12.70
2011,09,25,10,49,12.70
2011,09,25,10,50,12.70
2011,09,25,10,51,12.70
2011,09,25,10,52,12.70
2011,09,25,10,53,12.70
2011,09,25,10,54,12.70
2011,09,25,10,55,12.60
2011,09,25,10,56,12.60
2011,09,25,10,57,12.60
2011,09,25,10,58,12.60
2011,09,25,10,59,12.60
2011,09,25,11,00,12.60
2011,09,25,11,01,12.60
2011,09,25,11,02,12.60
2011,09,25,11,03,12.60
2011,09,25,11,04,12.60
2011,09,25,11,05,12.60
2011,09,25,11,06,12.60
2011,09,25,11,07,12.50
2011,09,25,11,08,12.50
2011,09,25,11,09,12.50
2011,09,25,11,10,12.50
2011,09,25,11,11,12.50
2011,09,25,11,12,12.50
2011,09,25,11,13,12.50
2011,09,25,11,14,12.50
2011,09,25,11,15,12.50
2011,09,25,11,16,12.50
2011,09,25,11,17,12.50
2011,09,25,11,18,12.50
2011,09,25,11,19,12.50
2011,09,25,11,20,12.50
2011,09,25,11,21,12.60
2011,09,25,11,22,12.60
2011,09,25,11,23,12.60
2011,09,25,11,24,12.60
2011,09,25,11,25,12.60
2011,09,25,11,26,12.60
2011,09,25,11,27,12.60
2011,09,25,11,28,12.60
2011,09,25,11,29,12.60
2011,09,25,11,30,12.60
2011,09,25,11,31,12.60
2011,09,25,11,32,12.60
2011,09,25,11,33,12.60
2011,09,25,11,34,12.60
2011,09,25,11,35,12.60
2011,09,25,11,36,12.60
2011,09,25,11,37,12.60
2011,09,25,11,38,12.50
2011,09,25,11,39,12.50
2011,09,25,11,40,12.50
2011,09,25,11,41,12.50
2011,09,25,11,42,12.50
2011,09,25,11,43,12.40
2011,09,25,11,44,12.40
2011,09,25,11,45,12.40
2011,09,25,11,46,12.40
2011,09,25,11,47,12.40
2011,09,25,11,48,12.50
2011,09,25,11,49,12.50
2011,09,25,11,50,12.50
2011,09,25,11,51,12.50
2011,09,25,11,52,12.50
2011,09,25,11,53,12.60
2011,09,25,11,54,12.60
2011,09,25,11,55,12.60
2011,09,25,11,56,12.60
2011,09,25,11,57,12.60
2011,09,25,11,58,12.70
2011,09,25,11,59,12.70
2011,09,25,12,00,12.80
2011,09,25,12,01,12.80
2011,09,25,12,02,12.90
2011,09,25,12,03,13.00
2011,09,25,12,04,13.00
2011,09,25,12,05,13.10
2011,09,25,12,06,13.20
2011,09,25,12,07,13.20
2011,09,25,12,08,13.30
2011,09,25,12,09,13.40
2011,09,25,12,10,13.50
2011,09,25,12,11,13.60
2011,09,25,12,12,13.70
2011,09,25,12,13,13.80
2011,09,25,12,14,13.90
2011,09,25,12,15,14.00
2011,09,25,12,16,14.10
2011,09,25,12,17,14.20
2011,09,25,12,18,14.30
2011,09,25,12,19,14.40
2011,09,25,12,20,14.50
2011,09,25,12,21,14.60
2011,09,25,12,22,14.60
2011,09,25,12,23,14.70
2011,09,25,12,24,14.70
2011,09,25,12,25,14.80
2011,09,25,12,26,14.80
2011,09,25,12,27,14.90
2011,09,25,12,28,14.90
2011,09,25,12,29,15.00
2011,09,25,12,30,15.00
2011,09,25,12,31,15.10
2011,09,25,12,32,15.10
2011,09,25,12,33,15.20
2011,09,25,12,34,15.20
2011,09,25,12,35,15.30
2011,09,25,12,36,15.30
2011,09,25,12,37,15.40
2011,09,25,12,38,15.40
2011,09,25,12,39,15.40
2011,09,25,12,40,15.50
2011,09,25,12,41,15.60
2011,09,25,12,42,15.60
2011,09,25,12,43,15.60
2011,09,25,12,44,15.70
2011,09,25,12,45,15.70
2011,09,25,12,46,15.80
2011,09,25,12,47,15.80
2011,09,25,12,48,15.80
2011,09,25,12,49,15.90
2011,09,25,12,50,15.90
2011,09,25,12,51,15.90
2011,09,25,12,52,15.90
2011,09,25,12,53,15.90
2011,09,25,12,54,15.90
2011,09,25,12,55,15.90
2011,09,25,12,56,15.90
2011,09,25,12,57,15.80
2011,09,25,12,58,15.80
2011,09,25,12,59,15.80
2011,09,25,13,00,15.80
2011,09,25,13,01,15.80
2011,09,25,13,02,15.80
2011,09,25,13,03,15.80
2011,09,25,13,04,15.80
2011,09,25,13,05,15.70
2011,09,25,13,06,15.70
2011,09,25,13,07,15.70
2011,09,25,13,08,15.70
2011,09,25,13,09,15.60
2011,09,25,13,10,15.60
2011,09,25,13,11,15.60
2011,09,25,13,12,15.50
2011,09,25,13,13,15.50
2011,09,25,13,14,15.50
2011,09,25,13,15,15.50
2011,09,25,13,16,15.50
2011,09,25,13,17,15.50
2011,09,25,13,18,15.50
2011,09,25,13,19,15.50
2011,09,25,13,20,15.50
2011,09,25,13,21,15.50
2011,09,25,13,22,15.50
2011,09,25,13,23,15.50
2011,09,25,13,24,15.60
2011,09,25,13,25,15.60
2011,09,25,13,26,15.60
2011,09,25,13,27,15.60
2011,09,25,13,28,15.60
2011,09,25,13,29,15.60
2011,09,25,13,30,15.60
2011,09,25,13,31,15.70
2011,09,25,13,32,15.70
2011,09,25,13,33,15.70
2011,09,25,13,34,15.70
2011,09,25,13,35,15.70
2011,09,25,13,36,15.70
2011,09,25,13,37,15.70
2011,09,25,13,38,15.70
2011,09,25,13,39,15.70
2011,09,25,13,40,15.70
2011,09,25,13,41,15.70
2011,09,25,13,42,15.70
2011,09,25,13,43,15.70
2011,09,25,13,44,15.70
2011,09,25,13,45,15.70
2011,09,25,13,46,15.70
2011,09,25,13,47,15.70
2011,09,25,13,48,15.70
2011,09,25,13,49,15.70
2011,09,25,13,50,15.70
2011,09,25,13,51,15.70
2011,09,25,13,52,15.70
2011,09,25,13,53,15.70
2011,09,25,13,54,15.70
2011,09,25,13,55,15.70
2011,09,25,13,56,15.70
2011,09,25,13,57,15.70
2011,09,25,13,58,15.70
2011,09,25,13,59,15.70
2011,09,25,14,00,15.70
2011,09,25,14,01,15.70
2011,09,25,14,02,15.70
2011,09,25,14,03,15.70
2011,09,25,14,04,15.70
2011,09,25,14,05,15.70
2011,09,25,14,06,15.70
2011,09,25,14,07,15.80
2011,09,25,14,08,15.80
2011,09,25,14,09,15.80
2011,09,25,14,10,15.80
2011,09,25,14,11,15.80
2011,09,25,14,12,15.80
2011,09,25,14,13,15.80
2011,09,25,14,14,15.80
2011,09,25,14,15,15.80
2011,09,25,14,16,15.80
2011,09,25,14,17,15.80
2011,09,25,14,18,15.90
2011,09,25,14,19,15.90
2011,09,25,14,20,16.00
2011,09,25,14,21,16.00
2011,09,25,14,22,16.00
2011,09,25,14,23,16.00
2011,09,25,14,24,16.10
2011,09,25,14,25,16.10
2011,09,25,14,26,16.20
2011,09,25,14,27,16.20
2011,09,25,14,28,16.30
2011,09,25,14,29,16.30
2011,09,25,14,30,16.40
2011,09,25,14,31,16.40
2011,09,25,14,32,16.40
2011,09,25,14,33,16.40
2011,09,25,14,34,16.40
2011,09,25,14,35,16.50
2011,09,25,14,36,16.50
2011,09,25,14,37,16.50
2011,09,25,14,38,16.60
2011,09,25,14,39,16.60
2011,09,25,14,40,16.60
2011,09,25,14,41,16.70
2011,09,25,14,42,16.70
2011,09,25,14,43,16.70
2011,09,25,14,44,16.80
2011,09,25,14,45,16.90
2011,09,25,14,46,17.00
2011,09,25,14,47,17.10
2011,09,25,14,48,17.20
2011,09,25,14,49,17.20
2011,09,25,14,50,17.20
2011,09,25,14,51,17.30
2011,09,25,14,52,17.30
2011,09,25,14,53,17.30
2011,09,25,14,54,17.20
2011,09,25,14,55,17.20
2011,09,25,14,56,17.20
2011,09,25,14,57,17.20
2011,09,25,14,58,17.20
2011,09,25,14,59,17.20
2011,09,25,15,00,17.20
2011,09,25,15,01,17.10
2011,09,25,15,02,17.10
2011,09,25,15,03,17.10
2011,09,25,15,04,17.20
2011,09,25,15,05,17.20
2011,09,25,15,06,17.30
2011,09,25,15,07,17.30
2011,09,25,15,08,17.40
2011,09,25,15,09,17.40
2011,09,25,15,10,17.50
2011,09,25,15,11,17.60
2011,09,25,15,12,17.70
2011,09,25,15,13,17.70
2011,09,25,15,14,17.80
2011,09,25,15,15,17.90
2011,09,25,15,16,18.00
2011,09,25,15,17,18.10
2011,09,25,15,18,18.20
2011,09,25,15,19,18.30
2011,09,25,15,20,18.30
2011,09,25,15,21,18.30
2011,09,25,15,22,18.40
2011,09,25,15,23,18.40
2011,09,25,15,24,18.50
2011,09,25,15,25,18.50
2011,09,25,15,26,18.50
2011,09,25,15,27,18.50
2011,09,25,15,28,18.50
2011,09,25,15,29,18.40
2011,09,25,15,30,18.40
2011,09,25,15,31,18.30
2011,09,25,15,32,18.30
2011,09,25,15,33,18.30
2011,09,25,15,34,18.20
2011,09,25,15,35,18.20
2011,09,25,15,36,18.20
2011,09,25,15,37,18.20
2011,09,25,15,38,18.20
2011,09,25,15,39,18.20
2011,09,25,15,40,18.10
2011,09,25,15,41,18.10
2011,09,25,15,42,18.10
2011,09,25,15,43,18.10
2011,09,25,15,44,18.00
2011,09,25,15,45,18.00
2011,09,25,15,46,18.00
2011,09,25,15,47,18.00
2011,09,25,15,48,18.00
2011,09,25,15,49,18.00
2011,09,25,15,50,18.00
2011,09,25,15,51,17.90
2011,09,25,15,52,17.90
2011,09,25,15,53,17.80
2011,09,25,15,54,17.80
2011,09,25,15,55,17.80
2011,09,25,15,56,17.80
2011,09,25,15,57,17.80
2011,09,25,15,58,17.80
2011,09,25,15,59,17.80
2011,09,25,16,00,17.80
2011,09,25,16,01,17.80
2011,09,25,16,02,17.70
2011,09,25,16,03,17.70
2011,09,25,16,04,17.70
2011,09,25,16,05,17.60
2011,09,25,16,06,17.60
2011,09,25,16,07,17.60
2011,09,25,16,08,17.60
2011,09,25,16,09,17.60
2011,09,25,16,10,17.60
2011,09,25,16,11,17.60
2011,09,25,16,12,17.60
2011,09,25,16,13,17.60
2011,09,25,16,14,17.60
2011,09,25,16,15,17.60
2011,09,25,16,16,17.60
2011,09,25,16,17,17.60
2011,09,25,16,18,17.60
2011,09,25,16,19,17.60
2011,09,25,16,20,17.60
2011,09,25,16,21,17.50
2011,09,25,16,22,17.50
2011,09,25,16,23,17.40
2011,09,25,16,24,17.40
2011,09,25,16,25,17.40
2011,09,25,16,26,17.40
2011,09,25,16,27,17.40
2011,09,25,16,28,17.50
2011,09,25,16,29,17.50
2011,09,25,16,30,17.50
2011,09,25,16,31,17.50
2011,09,25,16,32,17.60
2011,09,25,16,33,17.60
2011,09,25,16,34,17.60
2011,09,25,16,35,17.60
2011,09,25,16,36,17.60
2011,09,25,16,37,17.60
2011,09,25,16,38,17.60
2011,09,25,16,39,17.60
2011,09,25,16,40,17.60
2011,09,25,16,41,17.60
2011,09,25,16,42,17.60
2011,09,25,16,43,17.50
2011,09,25,16,44,17.50
2011,09,25,16,45,17.50
2011,09,25,16,46,17.50
2011,09,25,16,47,17.50
2011,09,25,16,48,17.60
2011,09,25,16,49,17.60
2011,09,25,16,50,17.60
2011,09,25,16,51,17.60
2011,09,25,16,52,17.60
2011,09,25,16,53,17.50
2011,09,25,16,54,17.50
2011,09,25,16,55,17.50
2011,09,25,16,56,17.50
2011,09,25,16,57,17.50
2011,09,25,16,58,17.50
2011,09,25,16,59,17.50
2011,09,25,17,00,17.50
2011,09,25,17,01,17.60
2011,09,25,17,02,17.50
2011,09,25,17,03,17.60
2011,09,25,17,04,17.60
2011,09,25,17,05,17.60
2011,09,25,17,06,17.50
2011,09,25,17,07,17.50
2011,09,25,17,08,17.50
2011,09,25,17,09,17.40
2011,09,25,17,10,17.40
2011,09,25,17,11,17.40
2011,09,25,17,12,17.30
2011,09,25,17,13,17.30
2011,09,25,17,14,17.20
2011,09,25,17,15,17.20
2011,09,25,17,16,17.10
2011,09,25,17,17,17.10
2011,09,25,17,18,17.00
2011,09,25,17,19,17.00